Time,TemperatureF,DewpointF,PressureIn,WindDirection,WindDirectionDegrees,WindSpeedMPH,WindSpeedGustMPH,Humidity,HourlyPrecipIn,Conditions,Clouds,dailyrainin,SoftwareType,DateUTC
2013-07-13 00:07:00,75.3,62.0,29.88,South,190,10.0,17.0,64,0.00,,,0.00,weatherlink.com 1.10,2013-07-13 05:07:00,
2013-07-13 00:22:00,75.1,62.0,29.88,SE,129,10.0,16.0,64,0.00,,,0.00,weatherlink.com 1.10,2013-07-13 05:22:00,
2013-07-13 00:37:00,74.6,62.0,29.87,SE,144,13.0,16.0,65,0.00,,,0.00,weatherlink.com 1.10,2013-07-13 05:37:00,
2013-07-13 00:52:00,74.4,62.0,29.88,SSE,165,13.0,18.0,65,0.00,,,0.00,weatherlink.com 1.10,2013-07-13 05:52:00,
2013-07-13 01:07:00,74.4,62.0,29.88,SE,146,7.0,21.0,65,0.00,,,0.00,weatherlink.com 1.10,2013-07-13 06:07:00,
2013-07-13 01:22:00,74.1,62.0,29.88,SSE,152,10.0,16.0,65,0.00,,,0.00,weatherlink.com 1.10,2013-07-13 06:22:00,
2013-07-13 01:37:00,73.8,61.0,29.88,South,183,11.0,17.0,65,0.00,,,0.00,weatherlink.com 1.10,2013-07-13 06:37:00,
2013-07-13 01:52:00,73.4,61.0,29.87,SSE,151,11.0,16.0,66,0.00,,,0.00,weatherlink.com 1.10,2013-07-13 06:52:00,
2013-07-13 02:07:00,73.2,62.0,29.87,SSW,193,10.0,15.0,67,0.00,,,0.00,weatherlink.com 1.10,2013-07-13 07:07:00,
2013-07-13 02:22:00,73.0,61.0,29.87,South,173,15.0,18.0,67,0.00,,,0.00,weatherlink.com 1.10,2013-07-13 07:22:00,
2013-07-13 02:37:00,72.6,61.0,29.86,SE,143,14.0,17.0,68,0.00,,,0.00,weatherlink.com 1.10,2013-07-13 07:37:00,
2013-07-13 02:52:00,72.4,61.0,29.86,SSE,156,10.0,15.0,68,0.00,,,0.00,weatherlink.com 1.10,2013-07-13 07:52:00,
2013-07-13 03:07:00,72.3,62.0,29.86,SSE,158,15.0,16.0,69,0.00,,,0.00,weatherlink.com 1.10,2013-07-13 08:07:00,
2013-07-13 03:22:00,72.3,62.0,29.87,South,186,8.0,12.0,69,0.00,,,0.00,weatherlink.com 1.10,2013-07-13 08:22:00,
2013-07-13 03:37:00,72.3,62.0,29.87,South,170,13.0,15.0,69,0.00,,,0.00,weatherlink.com 1.10,2013-07-13 08:37:00,
2013-07-13 03:52:00,72.0,62.0,29.88,SSW,198,9.0,14.0,70,0.00,,,0.00,weatherlink.com 1.10,2013-07-13 08:52:00,
2013-07-13 04:08:00,71.8,62.0,29.87,SSW,212,12.0,17.0,71,0.00,,,0.00,weatherlink.com 1.10,2013-07-13 09:08:00,
2013-07-13 04:23:00,69.9,63.0,29.87,South,190,11.0,17.0,78,0.03,,,0.03,weatherlink.com 1.10,2013-07-13 09:23:00,
2013-07-13 04:38:00,69.4,63.0,29.87,SSE,156,15.0,16.0,79,0.03,,,0.03,weatherlink.com 1.10,2013-07-13 09:38:00,
2013-07-13 04:53:00,69.1,63.0,29.87,SSE,155,9.0,14.0,81,0.03,,,0.03,weatherlink.com 1.10,2013-07-13 09:53:00,
2013-07-13 05:08:00,69.5,63.0,29.86,SE,137,10.0,19.0,80,0.03,,,0.03,weatherlink.com 1.10,2013-07-13 10:08:00,
2013-07-13 05:23:00,69.3,63.0,29.87,South,188,10.0,14.0,81,0.00,,,0.03,weatherlink.com 1.10,2013-07-13 10:23:00,
2013-07-13 05:38:00,69.7,63.0,29.87,SSE,151,11.0,15.0,79,0.00,,,0.03,weatherlink.com 1.10,2013-07-13 10:38:00,
2013-07-13 05:53:00,69.8,63.0,29.86,SSW,201,10.0,15.0,78,0.00,,,0.03,weatherlink.com 1.10,2013-07-13 10:53:00,
2013-07-13 06:08:00,69.6,62.0,29.86,SSE,156,9.0,12.0,78,0.00,,,0.03,weatherlink.com 1.10,2013-07-13 11:08:00,
2013-07-13 06:17:00,69.4,62.6,29.86,SSE,165,12.0,12.0,79,0.00,,,0.03,Wunderground v.1.15,2013-07-13 11:17:00,
2013-07-13 06:23:00,69.3,63.0,29.87,South,187,8.0,13.0,79,0.00,,,0.03,weatherlink.com 1.10,2013-07-13 11:23:00,
2013-07-13 06:38:00,69.1,63.0,29.86,South,173,10.0,15.0,80,0.00,,,0.03,weatherlink.com 1.10,2013-07-13 11:38:00,
2013-07-13 06:53:00,69.0,62.0,29.86,South,173,12.0,17.0,79,0.00,,,0.03,weatherlink.com 1.10,2013-07-13 11:53:00,
2013-07-13 07:08:00,68.8,62.0,29.86,SE,124,12.0,14.0,80,0.00,,,0.03,weatherlink.com 1.10,2013-07-13 12:08:00,
2013-07-13 07:23:00,68.7,62.0,29.86,South,169,12.0,19.0,80,0.00,,,0.03,weatherlink.com 1.10,2013-07-13 12:23:00,
2013-07-13 07:38:00,69.1,62.0,29.86,South,172,10.0,17.0,79,0.00,,,0.03,weatherlink.com 1.10,2013-07-13 12:38:00,
2013-07-13 07:53:00,69.5,63.0,29.86,South,174,10.0,21.0,79,0.00,,,0.03,weatherlink.com 1.10,2013-07-13 12:53:00,
2013-07-13 08:08:00,68.6,63.0,29.86,South,169,6.0,15.0,83,0.00,,,0.03,weatherlink.com 1.10,2013-07-13 13:08:00,
2013-07-13 08:23:00,68.4,63.0,29.87,SSE,160,9.0,16.0,83,0.01,,,0.04,weatherlink.com 1.10,2013-07-13 13:23:00,
2013-07-13 08:38:00,68.8,63.0,29.87,SE,143,12.0,14.0,82,0.01,,,0.04,weatherlink.com 1.10,2013-07-13 13:38:00,
2013-07-13 08:53:00,69.0,63.0,29.88,SSE,168,7.0,12.0,82,0.01,,,0.04,weatherlink.com 1.10,2013-07-13 13:53:00,
2013-07-13 09:08:00,69.4,63.0,29.88,SSE,164,6.0,10.0,81,0.01,,,0.04,weatherlink.com 1.10,2013-07-13 14:08:00,
2013-07-13 09:23:00,69.5,63.0,29.90,SSE,148,4.0,8.0,80,0.00,,,0.04,weatherlink.com 1.10,2013-07-13 14:23:00,
2013-07-13 09:38:00,69.5,63.0,29.90,ESE,106,5.0,6.0,81,0.00,,,0.04,weatherlink.com 1.10,2013-07-13 14:38:00,
2013-07-13 09:53:00,69.7,64.0,29.91,ENE,67,5.0,6.0,83,0.00,,,0.04,weatherlink.com 1.10,2013-07-13 14:53:00,
2013-07-13 10:08:00,70.1,64.0,29.91,ESE,113,7.0,9.0,81,0.00,,,0.04,weatherlink.com 1.10,2013-07-13 15:08:00,
2013-07-13 10:23:00,70.9,64.0,29.91,East,94,5.0,9.0,80,0.00,,,0.04,weatherlink.com 1.10,2013-07-13 15:23:00,
2013-07-13 10:38:00,71.5,65.0,29.91,SE,127,9.0,12.0,80,0.00,,,0.04,weatherlink.com 1.10,2013-07-13 15:38:00,
2013-07-13 10:53:00,71.6,65.0,29.91,SE,130,8.0,11.0,80,0.00,,,0.04,weatherlink.com 1.10,2013-07-13 15:53:00,
2013-07-13 11:08:00,71.5,66.0,29.91,ENE,76,15.0,17.0,82,0.00,,,0.04,weatherlink.com 1.10,2013-07-13 16:08:00,
2013-07-13 11:23:00,73.4,66.0,29.91,ENE,78,11.0,14.0,78,0.00,,,0.04,weatherlink.com 1.10,2013-07-13 16:23:00,
2013-07-13 11:38:00,74.6,67.0,29.90,SSE,149,14.0,18.0,76,0.00,,,0.04,weatherlink.com 1.10,2013-07-13 16:38:00,
2013-07-13 11:53:00,75.8,68.0,29.90,ESE,106,14.0,18.0,76,0.00,,,0.04,weatherlink.com 1.10,2013-07-13 16:53:00,
2013-07-13 12:08:00,76.1,67.0,29.90,SE,130,15.0,21.0,73,0.00,,,0.04,weatherlink.com 1.10,2013-07-13 17:08:00,
2013-07-13 12:24:00,77.4,67.0,29.90,SE,141,12.0,22.0,71,0.00,,,0.04,weatherlink.com 1.10,2013-07-13 17:24:00,
2013-07-13 12:39:00,77.6,66.0,29.90,SE,134,10.0,22.0,68,0.00,,,0.04,weatherlink.com 1.10,2013-07-13 17:39:00,
2013-07-13 12:54:00,77.4,67.0,29.91,SSE,148,9.0,24.0,70,0.00,,,0.04,weatherlink.com 1.10,2013-07-13 17:54:00,
2013-07-13 13:10:00,76.9,67.0,29.91,ESE,114,8.0,22.0,71,0.00,,,0.04,weatherlink.com 1.10,2013-07-13 18:10:00,
2013-07-13 13:24:00,76.7,66.0,29.90,ENE,65,16.0,25.0,70,0.00,,,0.04,weatherlink.com 1.10,2013-07-13 18:24:00,
2013-07-13 13:39:00,75.9,65.0,29.91,ESE,115,16.0,26.0,70,0.00,,,0.04,weatherlink.com 1.10,2013-07-13 18:39:00,
2013-07-13 13:54:00,75.9,66.0,29.90,South,169,14.0,23.0,71,0.00,,,0.04,weatherlink.com 1.10,2013-07-13 18:54:00,
2013-07-13 14:09:00,76.1,66.0,29.90,ESE,104,12.0,22.0,70,0.00,,,0.04,weatherlink.com 1.10,2013-07-13 19:09:00,
2013-07-13 14:24:00,76.9,66.0,29.89,ESE,110,14.0,21.0,69,0.00,,,0.04,weatherlink.com 1.10,2013-07-13 19:24:00,
2013-07-13 14:39:00,77.3,66.0,29.89,SE,128,7.0,18.0,69,0.00,,,0.04,weatherlink.com 1.10,2013-07-13 19:39:00,
2013-07-13 14:54:00,78.1,67.0,29.88,SSE,151,9.0,19.0,68,0.00,,,0.04,weatherlink.com 1.10,2013-07-13 19:54:00,
2013-07-13 15:09:00,80.5,68.0,29.88,SE,143,18.0,20.0,65,0.00,,,0.04,weatherlink.com 1.10,2013-07-13 20:09:00,
2013-07-13 15:24:00,80.6,67.0,29.88,East,95,15.0,23.0,64,0.00,,,0.04,weatherlink.com 1.10,2013-07-13 20:24:00,
2013-07-13 15:39:00,80.5,67.0,29.87,SE,134,14.0,25.0,64,0.00,,,0.04,weatherlink.com 1.10,2013-07-13 20:39:00,
2013-07-13 15:54:00,81.1,68.0,29.87,ESE,117,14.0,20.0,65,0.00,,,0.04,weatherlink.com 1.10,2013-07-13 20:54:00,
2013-07-13 16:09:00,81.7,68.0,29.87,SE,126,17.0,24.0,64,0.00,,,0.04,weatherlink.com 1.10,2013-07-13 21:09:00,
2013-07-13 16:24:00,81.9,69.0,29.87,SSE,152,11.0,24.0,65,0.00,,,0.04,weatherlink.com 1.10,2013-07-13 21:24:00,
2013-07-13 16:39:00,81.7,68.0,29.87,South,172,19.0,22.0,64,0.00,,,0.04,weatherlink.com 1.10,2013-07-13 21:39:00,
2013-07-13 16:54:00,81.7,69.0,29.87,South,185,9.0,23.0,65,0.00,,,0.04,weatherlink.com 1.10,2013-07-13 21:54:00,
2013-07-13 17:09:00,81.5,69.0,29.87,SSE,149,10.0,20.0,65,0.00,,,0.04,weatherlink.com 1.10,2013-07-13 22:09:00,
2013-07-13 17:24:00,81.8,69.0,29.88,SE,130,12.0,17.0,65,0.00,,,0.04,weatherlink.com 1.10,2013-07-13 22:24:00,
2013-07-13 17:39:00,81.0,69.0,29.88,ESE,118,9.0,20.0,67,0.00,,,0.04,weatherlink.com 1.10,2013-07-13 22:39:00,
2013-07-13 17:54:00,80.4,69.0,29.88,East,96,11.0,21.0,68,0.00,,,0.04,weatherlink.com 1.10,2013-07-13 22:54:00,
2013-07-13 18:09:00,80.3,69.0,29.88,SSE,149,14.0,17.0,68,0.00,,,0.04,weatherlink.com 1.10,2013-07-13 23:09:00,
2013-07-13 18:24:00,80.5,69.0,29.87,SE,126,7.0,18.0,68,0.00,,,0.04,weatherlink.com 1.10,2013-07-13 23:24:00,
2013-07-13 18:39:00,80.3,69.0,29.88,East,101,7.0,15.0,68,0.00,,,0.04,weatherlink.com 1.10,2013-07-13 23:39:00,
2013-07-13 18:54:00,79.7,68.0,29.88,ESE,110,11.0,16.0,68,0.00,,,0.04,weatherlink.com 1.10,2013-07-13 23:54:00,
2013-07-13 19:09:00,79.3,68.0,29.88,SE,136,10.0,16.0,69,0.00,,,0.04,weatherlink.com 1.10,2013-07-14 00:09:00,
2013-07-13 19:24:00,79.2,69.0,29.88,SE,125,11.0,13.0,70,0.00,,,0.04,weatherlink.com 1.10,2013-07-14 00:24:00,
2013-07-13 19:39:00,79.2,69.0,29.88,South,174,7.0,12.0,70,0.00,,,0.04,weatherlink.com 1.10,2013-07-14 00:39:00,
2013-07-13 19:54:00,78.9,69.0,29.88,ESE,122,9.0,14.0,71,0.00,,,0.04,weatherlink.com 1.10,2013-07-14 00:54:00,
2013-07-13 20:09:00,78.3,68.0,29.88,SE,139,12.0,16.0,71,0.00,,,0.04,weatherlink.com 1.10,2013-07-14 01:09:00,
2013-07-13 20:24:00,77.8,68.0,29.88,SE,124,10.0,18.0,71,0.00,,,0.04,weatherlink.com 1.10,2013-07-14 01:24:00,
2013-07-13 20:39:00,77.4,67.0,29.88,South,176,8.0,21.0,71,0.00,,,0.04,weatherlink.com 1.10,2013-07-14 01:39:00,
2013-07-13 20:54:00,76.7,67.0,29.89,SSE,149,9.0,19.0,72,0.00,,,0.04,weatherlink.com 1.10,2013-07-14 01:54:00,
2013-07-13 21:09:00,76.2,67.0,29.89,South,180,11.0,21.0,72,0.00,,,0.04,weatherlink.com 1.10,2013-07-14 02:09:00,
2013-07-13 21:24:00,75.7,66.0,29.89,SE,127,10.0,19.0,73,0.00,,,0.04,weatherlink.com 1.10,2013-07-14 02:24:00,
2013-07-13 21:39:00,75.3,66.0,29.90,SSE,165,14.0,21.0,73,0.00,,,0.04,weatherlink.com 1.10,2013-07-14 02:39:00,
2013-07-13 21:54:00,74.8,66.0,29.90,SE,124,14.0,21.0,73,0.00,,,0.04,weatherlink.com 1.10,2013-07-14 02:54:00,
2013-07-13 22:09:00,74.4,65.0,29.91,ESE,117,9.0,20.0,73,0.00,,,0.04,weatherlink.com 1.10,2013-07-14 03:09:00,
2013-07-13 22:24:00,73.9,65.0,29.92,SSE,153,11.0,19.0,73,0.00,,,0.04,weatherlink.com 1.10,2013-07-14 03:24:00,
2013-07-13 22:39:00,73.3,65.0,29.93,ESE,108,8.0,14.0,74,0.00,,,0.04,weatherlink.com 1.10,2013-07-14 03:39:00,
2013-07-13 22:54:00,72.7,64.0,29.94,SE,141,8.0,13.0,75,0.00,,,0.04,weatherlink.com 1.10,2013-07-14 03:54:00,
2013-07-13 23:09:00,72.2,64.0,29.94,SE,127,8.0,13.0,76,0.00,,,0.04,weatherlink.com 1.10,2013-07-14 04:09:00,
2013-07-13 23:24:00,71.7,65.0,29.96,SSE,159,8.0,13.0,78,0.00,,,0.04,weatherlink.com 1.10,2013-07-14 04:24:00,
2013-07-13 23:39:00,71.4,65.0,29.96,SE,125,7.0,14.0,79,0.00,,,0.04,weatherlink.com 1.10,2013-07-14 04:39:00,
2013-07-13 23:54:00,71.1,65.0,29.97,SE,132,6.0,16.0,80,0.00,,,0.04,weatherlink.com 1.10,2013-07-14 04:54:00,